W1RCP Weather Reports


Display with metric or nautical units.
time (UTC)temp
F
wind
direction
speed
MPH
gust
MPH
rain 1hr
in
rain 24hr
in
rain mn
in
humidity
%
barometer
mb
20260906124713 80 213 2.0 3.0 0.00 0.00 0.00 88 1024.3
20260906124209 80 236 1.0 3.0 0.00 0.00 0.00 89 1024.3
20260906123707 79 205 2.0 6.0 0.00 0.00 0.00 89 1024.2
20260906123202 79 203 2.0 3.0 0.00 0.00 0.00 90 1024.2
20260906122701 79 222 3.0 4.0 0.00 0.00 0.00 91 1024.0
20260906122157 78 205 1.0 2.0 0.00 0.00 0.00 92 1024.0
20260906121653 78 217 2.0 2.0 0.00 0.00 0.00 93 1024.1
20260906121149 77 209 1.0 3.0 0.00 0.00 0.00 94 1024.0
20260906120645 77 239 2.0 2.0 0.00 0.00 0.00 96 1024.0
20260906120142 76 213 0.0 1.0 0.00 0.00 0.00 98 1023.8
20260906115642 76 211 1.0 1.0 0.00 0.00 0.00 98 1024.0
20260906115138 75 210 0.0 1.0 0.00 0.00 0.00 98 1023.8
20260906114636 75 211 0.0 0.0 0.00 0.00 0.00 98 1023.9
20260906114131 75 211 0.0 1.0 0.00 0.00 0.00 98 1023.8
20260906113632 75 211 1.0 1.0 0.00 0.00 0.00 98 1023.8
20260906113126 75 211 1.0 1.0 0.00 0.00 0.00 98 1023.8
20260906112626 75 211 0.0 0.0 0.00 0.00 0.00 98 1023.8
20260906112123 75 211 0.0 0.0 0.00 0.00 0.00 98 1023.9
20260906111622 75 211 0.0 0.0 0.00 0.00 0.00 97 1023.7
20260906111117 75 211 0.0 0.0 0.00 0.00 0.00 97 1023.9
20260906110612 75 211 0.0 0.0 0.00 0.00 0.00 97 1023.6
20260906110112 75 211 0.0 2.0 0.00 0.00 0.00 97 1023.3
20260906105606 75 211 1.0 1.0 0.00 0.00 0.00 97 1023.6
20260906105102 75 211 1.0 1.0 0.00 0.00 0.00 97 1023.4
20260906104601 75 211 0.0 0.0 0.00 0.00 0.00 97 1023.4
20260906104055 75 210 0.0 1.0 0.00 0.00 0.00 97 1023.5
20260906103554 75 210 0.0 0.0 0.00 0.00 0.00 97 1023.2
20260906103050 75 210 1.0 1.0 0.00 0.00 0.00 97 1023.0
20260906102550 75 210 0.0 1.0 0.00 0.00 0.00 97 1023.3
20260906102045 76 210 0.0 1.0 0.00 0.00 0.00 96 1023.1
20260906101545 76 210 1.0 1.0 0.00 0.00 0.00 96 1023.1
20260906101039 76 210 1.0 1.0 0.00 0.00 0.00 96 1023.0
20260906100535 76 209 0.0 1.0 0.00 0.00 0.00 96 1023.1
20260906100036 76 209 0.0 1.0 0.00 0.00 0.00 96 1022.9
20260906095530 76 209 0.0 0.0 0.00 0.00 0.00 96 1023.1
20260906095026 76 209 1.0 1.0 0.00 0.00 0.00 96 1022.9
20260906094524 76 209 1.0 1.0 0.00 0.00 0.00 96 1022.9
20260906094020 76 209 0.0 1.0 0.00 0.00 0.00 96 1022.9
20260906093516 76 209 0.0 0.0 0.00 0.00 0.00 96 1022.7
20260906093017 76 209 1.0 1.0 0.00 0.00 0.00 96 1022.7
20260906092517 76 209 0.0 0.0 0.00 0.00 0.00 96 1022.8
20260906092012 76 209 1.0 2.0 0.00 0.00 0.00 96 1022.7
20260906091508 76 202 0.0 0.0 0.00 0.00 0.00 95 1022.6
20260906091004 76 202 1.0 1.0 0.00 0.00 0.00 96 1022.7
20260906090459 76 202 0.0 1.0 0.00 0.00 0.00 96 1022.7
20260906085959 76 202 1.0 1.0 0.00 0.00 0.00 95 1022.7
20260906085458 76 201 0.0 0.0 0.00 0.00 0.00 95 1022.7
20260906084957 77 200 0.0 1.0 0.00 0.00 0.00 95 1022.7
20260906084452 77 201 1.0 1.0 0.00 0.00 0.00 95 1022.6
20260906083951 77 198 0.0 1.0 0.00 0.00 0.00 94 1022.7
20260906083447 77 203 0.0 0.0 0.00 0.00 0.00 94 1022.5
20260906082946 77 203 0.0 0.0 0.00 0.00 0.00 94 1022.5
20260906082442 77 201 1.0 1.0 0.00 0.00 0.00 95 1022.6
20260906081937 77 200 1.0 1.0 0.00 0.00 0.00 95 1022.5
20260906081432 77 200 1.0 1.0 0.00 0.00 0.00 94 1022.6
20260906080929 77 200 0.0 0.0 0.00 0.00 0.00 94 1022.8
20260906080425 77 200 0.0 0.0 0.00 0.00 0.00 93 1022.8
20260906075925 77 200 0.0 1.0 0.00 0.00 0.00 93 1022.9
20260906075420 77 200 0.0 1.0 0.00 0.00 0.00 93 1022.6
20260906074915 77 200 0.0 0.0 0.00 0.00 0.00 93 1022.8
20260906074415 78 200 0.0 0.0 0.00 0.00 0.00 93 1022.7
20260906073914 78 200 1.0 1.0 0.00 0.00 0.00 93 1022.6
20260906073409 78 199 0.0 0.0 0.00 0.00 0.00 93 1023.0
20260906072905 78 209 0.0 0.0 0.00 0.00 0.00 93 1022.8
20260906072400 78 209 1.0 1.0 0.00 0.00 0.00 93 1022.6
20260906071856 78 209 1.0 1.0 0.00 0.00 0.00 93 1022.6
20260906071351 78 208 1.0 1.0 0.00 0.00 0.00 93 1022.8
20260906070847 78 206 2.0 2.0 0.00 0.00 0.00 93 1022.6
20260906070343 78 193 0.0 2.0 0.00 0.00 0.00 93 1022.8
20260906065838 78 205 0.0 1.0 0.00 0.00 0.00 93 1022.8
20260906065332 78 207 1.0 1.0 0.00 0.00 0.00 93 1023.0
20260906064829 77 218 2.0 2.0 0.00 0.00 0.00 93 1022.9
20260906064325 77 198 1.0 1.0 0.00 0.00 0.00 93 1023.0
20260906063824 77 196 0.0 1.0 0.00 0.00 0.00 93 1023.0
20260906063320 77 210 0.0 0.0 0.00 0.00 0.00 93 1023.1
20260906062815 77 210 0.0 0.0 0.00 0.00 0.00 93 1023.2
20260906062314 77 209 0.0 0.0 0.00 0.00 0.00 93 1023.4
20260906061810 77 209 0.0 0.0 0.00 0.00 0.00 93 1023.1
20260906061307 77 209 0.0 0.0 0.00 0.00 0.00 93 1023.4
20260906060807 77 210 0.0 2.0 0.00 0.00 0.00 93 1023.3
20260906060304 77 208 0.0 1.0 0.00 0.00 0.00 92 1023.2
20260906055800 78 208 1.0 1.0 0.00 0.00 0.00 92 1023.4
20260906055255 78 203 0.0 1.0 0.00 0.00 0.00 91 1023.4
20260906054750 78 205 1.0 2.0 0.00 0.00 0.00 91 1023.2
20260906054246 78 210 1.0 2.0 0.00 0.00 0.00 91 1023.1
20260906053742 78 199 1.0 1.0 0.00 0.00 0.00 91 1023.1
20260906053238 78 208 1.0 2.0 0.00 0.00 0.00 91 1023.3
20260906052732 78 212 0.0 2.0 0.00 0.00 0.00 91 1023.3
20260906052229 78 213 0.0 2.0 0.00 0.00 0.00 90 1023.5
20260906051726 78 210 0.0 2.0 0.00 0.00 0.00 90 1023.2
20260906051225 78 210 1.0 2.0 0.00 0.00 0.00 90 1023.1
20260906050720 78 206 2.0 2.0 0.00 0.00 0.00 90 1023.2
20260906050216 78 207 1.0 3.0 0.00 0.00 0.00 90 1023.1
20260906045714 79 213 1.0 2.0 0.00 0.00 0.00 89 1023.0
20260906045209 79 213 0.0 0.0 0.00 0.00 0.00 89 1023.2
20260906044705 79 213 1.0 2.0 0.00 0.00 0.00 89 1023.3
20260906044200 79 213 2.0 2.0 0.00 0.00 0.00 89 1023.4
20260906043656 79 215 2.0 3.0 0.00 0.00 0.00 89 1023.4
20260906043151 79 212 1.0 1.0 0.00 0.00 0.00 89 1023.5
20260906042651 79 211 1.0 1.0 0.00 0.00 0.00 89 1023.4
20260906042150 79 211 1.0 2.0 0.00 0.00 0.00 88 1023.5
20260906041647 79 210 0.0 1.0 0.00 0.00 0.00 88 1023.5
20260906041141 79 210 0.0 2.0 0.00 0.00 0.00 88 1023.4
20260906040637 79 209 0.0 1.0 0.00 0.00 0.00 88 1023.5
20260906040132 79 209 0.0 0.0 0.00 0.00 0.00 88 1023.7
20260906035627 79 209 0.0 1.0 0.00 0.00 0.00 87 1023.6
20260906035123 79 209 0.0 1.0 0.00 0.00 0.00 88 1023.7
20260906034623 79 208 0.0 1.0 0.00 0.00 0.00 87 1023.8
20260906034118 80 208 0.0 0.0 0.00 0.00 0.00 87 1023.9
20260906033614 80 208 1.0 2.0 0.00 0.00 0.00 87 1024.1
20260906033109 80 208 1.0 1.0 0.00 0.00 0.00 87 1024.0
20260906032606 80 208 0.0 0.0 0.00 0.00 0.00 87 1024.1
20260906032105 80 208 0.0 0.0 0.00 0.00 0.00 86 1024.2
20260906031601 80 208 0.0 0.0 0.00 0.00 0.00 85 1024.3
20260906031056 80 208 0.0 1.0 0.00 0.00 0.00 85 1024.2
20260906030555 80 207 0.0 1.0 0.00 0.00 0.00 86 1024.0
20260906030056 80 206 1.0 1.0 0.00 0.00 0.00 86 1024.0
20260906025555 80 205 0.0 0.0 0.00 0.00 0.00 86 1024.0
20260906025054 80 205 0.0 0.0 0.00 0.00 0.00 86 1023.9
20260906024549 81 205 0.0 1.0 0.00 0.00 0.00 86 1024.0
20260906024049 81 205 0.0 0.0 0.00 0.00 0.00 85 1024.0
20260906023545 81 205 0.0 1.0 0.00 0.00 0.00 85 1024.2
20260906023040 81 206 1.0 1.0 0.00 0.00 0.00 84 1024.1
20260906022535 81 205 0.0 0.0 0.00 0.00 0.00 84 1024.1
20260906022030 82 205 0.0 1.0 0.00 0.00 0.00 83 1024.3
20260906021527 82 205 0.0 1.0 0.00 0.00 0.00 83 1024.1
20260906021025 82 203 1.0 1.0 0.00 0.00 0.00 83 1024.1
20260906020525 82 234 3.0 3.0 0.00 0.00 0.00 82 1024.1
20260906020025 82 207 0.0 2.0 0.00 0.00 0.00 83 1024.1
20260906015524 82 203 0.0 1.0 0.00 0.00 0.00 83 1024.0
20260906015024 82 205 0.0 2.0 0.00 0.00 0.00 83 1023.9
20260906014519 82 207 1.0 2.0 0.00 0.00 0.00 83 1023.6
20260906014014 82 208 1.0 3.0 0.00 0.00 0.00 82 1023.5
20260906013509 82 207 0.0 2.0 0.00 0.00 0.00 82 1023.4
20260906013005 83 205 0.0 2.0 0.00 0.00 0.00 82 1023.3
20260906012500 83 208 2.0 3.0 0.00 0.00 0.00 81 1023.2
20260906011959 83 207 2.0 6.0 0.00 0.00 0.00 81 1023.0
20260906011455 83 213 1.0 3.0 0.00 0.00 0.00 81 1022.8
20260906010950 83 195 1.0 2.0 0.00 0.00 0.00 81 1022.8
20260906010446 83 199 1.0 2.0 0.00 0.00 0.00 81 1022.7
20260906005942 82 202 0.0 2.0 0.00 0.00 0.00 83 1022.8
20260906005441 82 194 0.0 1.0 0.00 0.00 0.00 84 1022.5
20260906004940 81 199 1.0 1.0 0.00 0.00 0.00 86 1022.6
20260906004434 82 206 0.0 0.0 0.00 0.00 0.00 84 1022.4
20260906003930 82 206 0.0 0.0 0.00 0.00 0.00 83 1022.4
20260906003430 82 206 0.0 0.0 0.00 0.00 0.00 83 1022.3
20260906002925 82 206 0.0 0.0 0.00 0.00 0.00 82 1022.2
20260906002425 83 206 0.0 0.0 0.00 0.00 0.00 82 1022.2
20260906001920 83 206 0.0 0.0 0.00 0.00 0.00 81 1022.2
20260906001416 84 206 0.0 0.0 0.00 0.00 0.00 80 1022.0
20260906000911 84 205 0.0 0.0 0.00 0.00 0.00 78 1022.1
20260906000406 84 206 0.0 0.0 0.00 0.00 0.00 77 1022.0
20260905235901 85 206 0.0 0.0 0.00 0.00 0.00 75 1021.9
20260905235401 86 206 0.0 0.0 0.00 0.00 0.00 74 1022.0
20260905234856 86 206 0.0 0.0 0.00 0.00 0.00 72 1022.0
20260905234351 87 206 0.0 0.0 0.00 0.00 0.00 71 1022.0
20260905233846 87 206 0.0 0.0 0.00 0.00 0.00 70 1022.1
20260905233341 87 206 0.0 0.0 0.00 0.00 0.00 69 1022.2
20260905232840 88 206 0.0 1.0 0.00 0.00 0.00 68 1022.1
20260905232337 88 206 0.0 0.0 0.00 0.00 0.00 67 1022.1
20260905231832 89 205 0.0 1.0 0.00 0.00 0.00 66 1022.4
20260905231327 88 204 0.0 0.0 0.00 0.00 0.00 66 1022.3
20260905230824 88 204 1.0 1.0 0.00 0.00 0.00 66 1022.5
20260905230321 88 202 2.0 2.0 0.00 0.00 0.00 66 1022.5
20260905225821 89 227 2.0 6.0 0.00 0.00 0.00 65 1022.4
20260905225316 89 217 2.0 2.0 0.00 0.00 0.00 64 1022.5
20260905224816 90 216 2.0 3.0 0.00 0.00 0.00 63 1022.3
20260905224311 91 201 1.0 2.0 0.00 0.00 0.00 62 1022.7
20260905223806 92 219 2.0 3.0 0.00 0.00 0.00 59 1022.6
20260905223304 94 208 2.0 3.0 0.00 0.00 0.00 58 1022.6
20260905222759 93 205 1.0 1.0 0.00 0.00 0.00 57 1022.4
20260905222257 94 195 1.0 2.0 0.00 0.00 0.00 58 1022.5
20260905221754 94 196 1.0 4.0 0.00 0.00 0.00 57 1022.7
20260905221250 93 203 2.0 2.0 0.00 0.00 0.00 57 1022.6
20260905220746 92 207 2.0 3.0 0.00 0.00 0.00 58 1022.7
20260905220242 93 167 4.0 6.0 0.00 0.00 0.00 57 1022.8
20260905215741 93 206 2.0 4.0 0.00 0.00 0.00 58 1022.9
20260905215238 93 196 1.0 3.0 0.00 0.00 0.00 57 1022.8
20260905214733 93 200 2.0 3.0 0.00 0.00 0.00 57 1022.7
20260905214229 93 202 2.0 3.0 0.00 0.00 0.00 55 1022.8
20260905213724 93 237 4.0 4.0 0.00 0.00 0.00 56 1022.8
20260905213220 93 271 4.0 6.0 0.00 0.00 0.00 55 1022.8
20260905212715 93 227 2.0 2.0 0.00 0.00 0.00 56 1022.9
20260905212214 93 250 4.0 7.0 0.00 0.00 0.00 55 1022.9
20260905211714 93 206 2.0 4.0 0.00 0.00 0.00 57 1022.7
20260905211209 92 213 2.0 4.0 0.00 0.00 0.00 57 1023.0
20260905210706 93 224 5.0 9.0 0.00 0.00 0.00 56 1022.9
20260905210205 95 202 1.0 7.0 0.00 0.00 0.00 57 1023.0
20260905205704 95 227 3.0 3.0 0.00 0.00 0.00 54 1023.0
20260905205205 94 179 1.0 3.0 0.00 0.00 0.00 56 1022.8
20260905204704 94 220 2.0 4.0 0.00 0.00 0.00 56 1023.0
20260905204200 94 215 3.0 4.0 0.00 0.00 0.00 58 1022.8
20260905203654 94 203 0.0 4.0 0.00 0.00 0.00 57 1022.8
20260905203150 94 217 3.0 4.0 0.00 0.00 0.00 56 1023.0
20260905202645 93 194 1.0 3.0 0.00 0.00 0.00 56 1023.0
20260905202140 92 185 1.0 3.0 0.00 0.00 0.00 61 1023.0
20260905201636 92 209 2.0 6.0 0.00 0.00 0.00 57 1023.1
20260905201135 91 225 1.0 1.0 0.00 0.00 0.00 60 1023.1
20260905200631 92 238 2.0 7.0 0.00 0.00 0.00 57 1023.2
20260905200127 93 251 6.0 8.0 0.00 0.00 0.00 57 1023.3
20260905195625 93 204 2.0 6.0 0.00 0.00 0.00 59 1023.4
20260905195120 94 232 3.0 4.0 0.00 0.00 0.00 57 1023.2
20260905194620 94 197 1.0 3.0 0.00 0.00 0.00 58 1023.4
20260905194120 93 202 0.0 4.0 0.00 0.00 0.00 59 1023.6
20260905193615 93 239 5.0 8.0 0.00 0.00 0.00 56 1023.5
20260905193109 93 169 1.0 2.0 0.00 0.00 0.00 59 1023.5
20260905192605 92 195 0.0 1.0 0.00 0.00 0.00 59 1023.4
20260905192101 93 223 3.0 6.0 0.00 0.00 0.00 60 1023.4
20260905191600 94 203 2.0 4.0 0.00 0.00 0.00 56 1023.6
20260905191059 93 192 0.0 3.0 0.00 0.00 0.00 58 1023.7
20260905190557 93 235 3.0 6.0 0.00 0.00 0.00 57 1023.9
20260905190056 93 202 2.0 4.0 0.00 0.00 0.00 60 1024.0
20260905185555 94 212 3.0 6.0 0.00 0.00 0.00 56 1024.0
20260905185050 93 197 1.0 3.0 0.00 0.00 0.00 59 1024.0
20260905184545 93 204 1.0 3.0 0.00 0.00 0.00 59 1024.0
20260905184044 92 225 5.0 6.0 0.00 0.00 0.00 60 1024.3
20260905183543 92 243 2.0 2.0 0.00 0.00 0.00 58 1024.3
20260905183039 92 274 6.0 7.0 0.00 0.00 0.00 57 1024.4
20260905182539 91 179 2.0 4.0 0.00 0.00 0.00 60 1024.3
20260905182039 90 197 2.0 6.0 0.00 0.00 0.00 62 1024.5
20260905181539 89 247 4.0 6.0 0.00 0.00 0.00 61 1024.7
20260905181033 90 206 2.0 2.0 0.00 0.00 0.00 61 1024.7
20260905180533 91 206 2.0 7.0 0.00 0.00 0.00 60 1024.8
20260905180029 91 198 0.0 3.0 0.00 0.00 0.00 61 1024.7
20260905175527 91 205 3.0 7.0 0.00 0.00 0.00 61 1024.8
20260905175023 91 202 2.0 4.0 0.00 0.00 0.00 60 1024.9
20260905174519 91 229 3.0 4.0 0.00 0.00 0.00 58 1024.9
20260905174014 91 209 2.0 6.0 0.00 0.00 0.00 61 1025.0
20260905173510 91 223 2.0 3.0 0.00 0.00 0.00 61 1025.3
20260905173006 91 206 1.0 1.0 0.00 0.00 0.00 60 1025.2
20260905172503 91 200 2.0 4.0 0.00 0.00 0.00 59 1025.2
20260905171959 91 197 2.0 3.0 0.00 0.00 0.00 62 1025.1
20260905171456 91 207 2.0 6.0 0.00 0.00 0.00 60 1025.1
20260905170952 91 196 0.0 1.0 0.00 0.00 0.00 59 1025.5
20260905170448 90 190 0.0 2.0 0.00 0.00 0.00 63 1025.5
20260905165948 89 203 2.0 2.0 0.00 0.00 0.00 64 1025.4
20260905165443 88 202 0.0 1.0 0.00 0.00 0.00 65 1025.6
20260905164938 89 219 2.0 2.0 0.00 0.00 0.00 63 1025.5
20260905164438 89 201 0.0 2.0 0.00 0.00 0.00 64 1025.8
20260905163932 90 41 2.0 4.0 0.00 0.00 0.00 64 1025.9
20260905163429 88 214 2.0 3.0 0.00 0.00 0.00 70 1026.0
20260905162925 86 193 0.0 1.0 0.00 0.00 0.00 69 1026.0
20260905162420 88 209 1.0 4.0 0.00 0.00 0.00 67 1026.1
20260905161915 89 205 2.0 3.0 0.00 0.00 0.00 67 1026.3
20260905161414 87 199 0.0 2.0 0.00 0.00 0.00 73 1026.1
20260905160912 87 202 2.0 6.0 0.00 0.00 0.00 72 1026.4
20260905160407 89 203 2.0 3.0 0.00 0.00 0.00 69 1026.0
20260905155907 87 190 0.0 2.0 0.00 0.00 0.00 72 1026.0
20260905155407 86 210 3.0 6.0 0.00 0.00 0.00 72 1026.4
20260905154905 86 208 3.0 4.0 0.00 0.00 0.00 74 1026.3
20260905154401 86 214 2.0 3.0 0.00 0.00 0.00 72 1026.2
20260905153856 86 200 1.0 4.0 0.00 0.00 0.00 74 1026.3
20260905153353 86 218 1.0 2.0 0.00 0.00 0.00 72 1026.4
20260905152852 86 88 1.0 2.0 0.00 0.00 0.00 72 1026.6
20260905152351 85 201 1.0 3.0 0.00 0.00 0.00 75 1026.6
20260905151847 87 195 0.0 2.0 0.00 0.00 0.00 70 1026.7
20260905151342 87 162 1.0 2.0 0.00 0.00 0.00 70 1026.6
20260905150842 86 200 1.0 3.0 0.00 0.00 0.00 74 1026.5
20260905150337 85 202 2.0 3.0 0.00 0.00 0.00 75 1026.6
20260905145835 85 201 1.0 2.0 0.00 0.00 0.00 74 1026.6
20260905145334 85 245 4.0 4.0 0.00 0.00 0.00 74 1026.6
20260905144833 84 219 2.0 2.0 0.00 0.00 0.00 78 1026.6
20260905144329 85 238 3.0 3.0 0.00 0.00 0.00 75 1026.4
20260905143827 85 199 1.0 2.0 0.00 0.00 0.00 75 1026.4
20260905143322 84 189 1.0 1.0 0.00 0.00 0.00 80 1026.5
20260905142821 84 214 3.0 3.0 0.00 0.00 0.00 76 1026.6
20260905142315 84 205 3.0 3.0 0.00 0.00 0.00 77 1026.5
20260905141812 83 201 3.0 3.0 0.00 0.00 0.00 80 1026.4
20260905141307 83 201 2.0 6.0 0.00 0.00 0.00 81 1026.5
20260905140802 82 218 2.0 4.0 0.00 0.00 0.00 81 1026.5
20260905140302 81 201 3.0 3.0 0.00 0.00 0.00 83 1026.4
20260905135801 81 252 3.0 3.0 0.00 0.00 0.00 83 1026.3
20260905135257 81 208 2.0 3.0 0.00 0.00 0.00 84 1026.4
20260905134757 80 201 1.0 2.0 0.00 0.00 0.00 85 1026.5
20260905134256 80 201 3.0 4.0 0.00 0.00 0.00 85 1026.5
20260905133751 82 204 4.0 4.0 0.00 0.00 0.00 82 1026.6
20260905133246 80 189 0.0 2.0 0.00 0.00 0.00 86 1026.7
20260905132745 80 204 4.0 4.0 0.00 0.00 0.00 86 1026.7
20260905132241 79 198 1.0 1.0 0.00 0.00 0.00 87 1026.7
20260905131736 79 206 2.0 2.0 0.00 0.00 0.00 87 1026.5
20260905131232 80 207 1.0 2.0 0.00 0.00 0.00 85 1026.7
20260905130732 80 202 2.0 2.0 0.00 0.00 0.00 84 1026.5
20260905130231 79 179 1.0 2.0 0.00 0.00 0.00 86 1026.3
20260905125726 79 203 2.0 4.0 0.00 0.00 0.00 87 1026.3
20260905125221 78 185 0.0 0.0 0.00 0.00 0.00 88 1026.5